Location: Starry Hill Observatory
(46.8582°N, 122.3590°W)
Time: 17:01:38
(UTC-07:00)

ISS - Visible Passes

Search period start: 20 September 2014 00:00
Search period end: 30 September 2014 00:00
Orbit: 413 x 417 km, 51.6° (Epoch: 20 September)

Date Brightness Start Highest point End Pass type
(mag) Time Alt. Az. Time Alt. Az. Time Alt. Az.
20 Sep -2.8 05:01:03 47° NNW 05:01:17 48° NNW 05:04:32 10° ENE visible
21 Sep -0.9 04:14:09 24° NE 04:14:09 24° NE 04:15:40 10° ENE visible
21 Sep -2.0 05:47:01 15° WNW 05:49:26 34° N 05:52:32 10° ENE visible
22 Sep -2.2 05:00:05 35° NNW 05:00:24 36° N 05:03:32 10° ENE visible
23 Sep -0.7 04:13:08 22° NE 04:13:08 22° NE 04:14:32 10° ENE visible
23 Sep -2.1 05:46:00 14° WNW 05:48:31 37° N 05:51:39 10° ENE visible
24 Sep -2.1 04:59:02 33° NNW 04:59:24 34° N 05:02:30 10° ENE visible
25 Sep -0.5 04:12:04 20° NE 04:12:04 20° NE 04:13:21 10° ENE visible
25 Sep -2.6 05:44:57 16° NW 05:47:23 51° NNE 05:50:39 10° E visible
26 Sep -2.3 04:58:01 41° N 04:58:14 41° NNE 05:01:25 10° E visible
26 Sep -3.1 06:31:46 10° WNW 06:35:03 59° SSW 06:38:19 10° SE visible
27 Sep -0.3 04:11:08 17° ENE 04:11:08 17° ENE 04:12:09 10° ENE visible
27 Sep -3.4 05:44:01 23° WNW 05:45:59 89° SSW 05:49:19 10° ESE visible
28 Sep -2.7 04:57:12 58° ENE 04:57:12 58° ENE 05:00:08 10° ESE visible
28 Sep -2.0 06:30:29 10° W 06:33:19 26° SW 06:36:08 10° SSE visible
29 Sep -0.1 04:10:30 12° E 04:10:30 12° E 04:10:50 10° E visible
29 Sep -2.8 05:43:23 33° WSW 05:44:16 41° SW 05:47:25 10° SE visible
